Time,TemperatureF,DewpointF,PressureIn,WindDirection,WindDirectionDegrees,WindSpeedMPH,WindSpeedGustMPH,Humidity,HourlyPrecipIn,Conditions,Clouds,dailyrainin,SoftwareType,DateUTC
2013-09-17 00:24:00,81.0,77.0,29.93,ENE,63,10.0,-999.0,87,-99.99,,,-99.99,,2013-09-17 04:24:00,
2013-09-17 00:54:00,81.0,77.0,29.92,ENE,59,8.0,-999.0,87,-99.99,,,-99.99,,2013-09-17 04:54:00,
2013-09-17 01:23:00,82.0,78.0,29.92,NE,56,9.0,-999.0,87,-99.99,,,-99.99,,2013-09-17 05:23:00,
2013-09-17 01:52:00,81.0,77.0,29.91,ENE,67,10.0,-999.0,87,-99.99,,,-99.99,,2013-09-17 05:52:00,
2013-09-17 02:12:00,81.0,77.0,29.90,ENE,63,7.0,-999.0,88,-99.99,,,-99.99,,2013-09-17 06:12:00,
2013-09-17 02:22:00,81.0,77.0,29.90,East,86,8.0,-999.0,87,-99.99,,,-99.99,,2013-09-17 06:22:00,
2013-09-17 02:52:00,81.0,76.0,29.90,East,95,8.0,-999.0,86,-99.99,,,-99.99,,2013-09-17 06:52:00,
2013-09-17 03:11:00,81.0,76.0,29.90,ENE,59,6.0,-999.0,86,-99.99,,,-99.99,,2013-09-17 07:11:00,
2013-09-17 03:23:00,81.0,77.0,29.89,East,82,6.0,-999.0,87,-99.99,,,-99.99,,2013-09-17 07:23:00,
2013-09-17 03:52:00,81.0,77.0,29.88,ENE,76,7.0,-999.0,87,-99.99,,,-99.99,,2013-09-17 07:52:00,
2013-09-17 04:12:00,81.0,77.0,29.88,ENE,78,5.0,-999.0,87,-99.99,,,-99.99,,2013-09-17 08:12:00,
2013-09-17 04:22:00,81.0,76.0,29.87,East,86,6.0,-999.0,86,-99.99,,,-99.99,,2013-09-17 08:22:00,
2013-09-17 04:52:00,82.0,77.0,29.88,ENE,75,6.0,-999.0,84,-99.99,,,-99.99,,2013-09-17 08:52:00,
2013-09-17 05:12:00,82.0,77.0,29.88,ENE,74,5.0,-999.0,84,-99.99,,,-99.99,,2013-09-17 09:12:00,
2013-09-17 05:22:00,82.0,77.0,29.88,East,100,5.0,-999.0,84,-99.99,,,-99.99,,2013-09-17 09:22:00,
2013-09-17 05:42:00,82.0,77.0,29.88,ENE,74,5.0,-999.0,85,-99.99,,,-99.99,,2013-09-17 09:42:00,
2013-09-17 05:53:00,82.0,76.0,29.88,ESE,109,6.0,-999.0,83,-99.99,,,-99.99,,2013-09-17 09:53:00,
2013-09-17 06:12:00,82.0,77.0,29.88,ENE,72,6.0,-999.0,85,-99.99,,,-99.99,,2013-09-17 10:12:00,
2013-09-17 06:23:00,82.0,77.0,29.88,ENE,76,3.0,-999.0,85,-99.99,,,-99.99,,2013-09-17 10:23:00,
2013-09-17 06:42:00,82.0,77.0,29.88,East,101,3.0,-999.0,86,-99.99,,,-99.99,,2013-09-17 10:42:00,
2013-09-17 06:53:00,82.0,78.0,29.88,East,89,0.0,-999.0,87,-99.99,,,-99.99,,2013-09-17 10:53:00,
2013-09-17 07:11:00,82.0,77.0,29.89,ESE,109,3.0,-999.0,85,-99.99,,,-99.99,,2013-09-17 11:11:00,
2013-09-17 07:22:00,82.0,77.0,29.90,East,81,3.0,-999.0,85,-99.99,,,-99.99,,2013-09-17 11:22:00,
2013-09-17 07:52:00,82.0,77.0,29.91,East,100,2.0,-999.0,86,-99.99,,,-99.99,,2013-09-17 11:52:00,
2013-09-17 08:12:00,82.0,78.0,29.91,ESE,117,4.0,-999.0,87,-99.99,,,-99.99,,2013-09-17 12:12:00,
2013-09-17 08:22:00,82.0,77.0,29.92,ESE,115,7.0,-999.0,86,-99.99,,,-99.99,,2013-09-17 12:22:00,
2013-09-17 08:52:00,83.0,78.0,29.93,ESE,119,1.0,-999.0,85,-99.99,,,-99.99,,2013-09-17 12:52:00,
2013-09-17 09:11:00,83.0,78.0,29.93,SE,129,5.0,-999.0,86,-99.99,,,-99.99,,2013-09-17 13:11:00,
2013-09-17 09:22:00,83.0,78.0,29.93,SSE,156,1.0,-999.0,86,-99.99,,,-99.99,,2013-09-17 13:22:00,
2013-09-17 09:52:00,83.0,78.0,29.94,SE,136,0.0,-999.0,84,-99.99,,,-99.99,,2013-09-17 13:52:00,
2013-09-17 10:11:00,84.0,78.0,29.94,SE,136,0.0,-999.0,83,-99.99,,,-99.99,,2013-09-17 14:11:00,
2013-09-17 10:22:00,84.0,78.0,29.95,SE,141,0.0,-999.0,83,-99.99,,,-99.99,,2013-09-17 14:22:00,
2013-09-17 10:52:00,83.0,77.0,29.96,SE,144,0.0,-999.0,83,-99.99,,,-99.99,,2013-09-17 14:52:00,
2013-09-17 11:11:00,83.0,78.0,29.96,SE,144,0.0,-999.0,84,-99.99,,,-99.99,,2013-09-17 15:11:00,
2013-09-17 11:22:00,84.0,78.0,29.96,SE,144,0.0,-999.0,83,-99.99,,,-99.99,,2013-09-17 15:22:00,
2013-09-17 11:44:00,84.0,78.0,29.96,SE,144,0.0,-999.0,83,-99.99,,,-99.99,,2013-09-17 15:44:00,
2013-09-17 11:53:00,83.0,78.0,29.97,NW,309,2.0,-999.0,85,-99.99,,,-99.99,,2013-09-17 15:53:00,
2013-09-17 12:13:00,81.0,77.0,29.97,NW,317,9.0,-999.0,87,-99.99,,,-99.99,,2013-09-17 16:13:00,
2013-09-17 12:23:00,79.0,76.0,29.97,NW,319,11.0,-999.0,90,-99.99,,,-99.99,,2013-09-17 16:23:00,
2013-09-17 12:54:00,78.0,75.0,29.97,NNW,336,8.0,-999.0,91,-99.99,,,-99.99,,2013-09-17 16:54:00,
2013-09-17 13:12:00,78.0,75.0,29.95,NNW,342,8.0,-999.0,91,-99.99,,,-99.99,,2013-09-17 17:12:00,
2013-09-17 13:24:00,79.0,76.0,29.94,NNW,341,6.0,-999.0,91,-99.99,,,-99.99,,2013-09-17 17:24:00,
2013-09-17 13:43:00,78.0,75.0,29.94,NNW,339,6.0,-999.0,90,-99.99,,,-99.99,,2013-09-17 17:43:00,
2013-09-17 13:53:00,79.0,76.0,29.93,NNW,344,4.0,-999.0,90,-99.99,,,-99.99,,2013-09-17 17:53:00,
2013-09-17 14:12:00,79.0,75.0,29.92,NW,326,8.0,-999.0,89,-99.99,,,-99.99,,2013-09-17 18:12:00,
2013-09-17 14:22:00,79.0,75.0,29.90,NW,325,8.0,-999.0,89,-99.99,,,-99.99,,2013-09-17 18:22:00,
2013-09-17 14:52:00,80.0,76.0,29.89,North,360,8.0,-999.0,89,-99.99,,,-99.99,,2013-09-17 18:52:00,
2013-09-17 15:12:00,80.0,76.0,29.89,NNE,22,9.0,-999.0,89,-99.99,,,-99.99,,2013-09-17 19:12:00,
2013-09-17 15:22:00,81.0,77.0,29.88,NNE,13,8.0,-999.0,89,-99.99,,,-99.99,,2013-09-17 19:22:00,
2013-09-17 15:52:00,81.0,77.0,29.87,NNE,15,7.0,-999.0,88,-99.99,,,-99.99,,2013-09-17 19:52:00,
2013-09-17 16:11:00,81.0,77.0,29.88,NNE,26,7.0,-999.0,88,-99.99,,,-99.99,,2013-09-17 20:11:00,
2013-09-17 16:22:00,82.0,78.0,29.87,North,355,7.0,-999.0,87,-99.99,,,-99.99,,2013-09-17 20:22:00,
2013-09-17 16:52:00,83.0,78.0,29.87,NNE,25,5.0,-999.0,85,-99.99,,,-99.99,,2013-09-17 20:52:00,
2013-09-17 17:12:00,83.0,78.0,29.88,North,11,5.0,-999.0,85,-99.99,,,-99.99,,2013-09-17 21:12:00,
2013-09-17 17:22:00,83.0,77.0,29.87,NE,48,3.0,-999.0,83,-99.99,,,-99.99,,2013-09-17 21:22:00,
2013-09-17 17:54:00,84.0,77.0,29.87,NE,56,4.0,-999.0,80,-99.99,,,-99.99,,2013-09-17 21:54:00,
2013-09-17 18:13:00,83.0,77.0,29.87,NE,46,6.0,-999.0,82,-99.99,,,-99.99,,2013-09-17 22:13:00,
2013-09-17 18:24:00,83.0,77.0,29.87,ENE,59,5.0,-999.0,82,-99.99,,,-99.99,,2013-09-17 22:24:00,
2013-09-17 18:53:00,83.0,78.0,29.87,NE,34,8.0,-999.0,84,-99.99,,,-99.99,,2013-09-17 22:53:00,
2013-09-17 19:22:00,82.0,77.0,29.87,NE,44,6.0,-999.0,86,-99.99,,,-99.99,,2013-09-17 23:22:00,
2013-09-17 19:52:00,82.0,77.0,29.89,ENE,61,8.0,-999.0,86,-99.99,,,-99.99,,2013-09-17 23:52:00,
2013-09-17 20:11:00,82.0,77.0,29.89,ENE,64,10.0,-999.0,86,-99.99,,,-99.99,,2013-09-18 00:11:00,
2013-09-17 20:22:00,82.0,77.0,29.88,NE,49,8.0,-999.0,86,-99.99,,,-99.99,,2013-09-18 00:22:00,
2013-09-17 20:42:00,82.0,78.0,29.88,ENE,66,9.0,-999.0,87,-99.99,,,-99.99,,2013-09-18 00:42:00,
2013-09-17 20:52:00,82.0,77.0,29.89,NE,47,8.0,-999.0,85,-99.99,,,-99.99,,2013-09-18 00:52:00,
2013-09-17 21:11:00,82.0,77.0,29.89,ENE,69,8.0,-999.0,86,-99.99,,,-99.99,,2013-09-18 01:11:00,
2013-09-17 21:22:00,82.0,77.0,29.90,East,80,6.0,-999.0,86,-99.99,,,-99.99,,2013-09-18 01:22:00,
2013-09-17 21:53:00,82.0,77.0,29.91,ENE,58,5.0,-999.0,86,-99.99,,,-99.99,,2013-09-18 01:53:00,
2013-09-17 22:11:00,82.0,77.0,29.92,East,82,7.0,-999.0,86,-99.99,,,-99.99,,2013-09-18 02:11:00,
2013-09-17 22:22:00,82.0,77.0,29.92,NE,51,6.0,-999.0,86,-99.99,,,-99.99,,2013-09-18 02:22:00,
2013-09-17 22:43:00,82.0,77.0,29.91,East,85,6.0,-999.0,86,-99.99,,,-99.99,,2013-09-18 02:43:00,
2013-09-17 22:52:00,82.0,77.0,29.92,NE,47,8.0,-999.0,85,-99.99,,,-99.99,,2013-09-18 02:52:00,
2013-09-17 23:12:00,83.0,78.0,29.91,East,94,7.0,-999.0,85,-99.99,,,-99.99,,2013-09-18 03:12:00,
2013-09-17 23:23:00,83.0,78.0,29.91,ENE,69,6.0,-999.0,84,-99.99,,,-99.99,,2013-09-18 03:23:00,
2013-09-17 23:44:00,83.0,78.0,29.91,East,79,6.0,-999.0,84,-99.99,,,-99.99,,2013-09-18 03:44:00,
2013-09-17 23:55:00,83.0,78.0,29.91,East,90,6.0,-999.0,85,-99.99,,,-99.99,,2013-09-18 03:55:00,